FENGYUN 1C DEB, 38813

Orbit data source: Space-Track

FENGYUN 1C DEB, 38813 is space debris in SSO originally from a launch on Mon, 10 May 1999 UTC launched from the Taiyaun Space Center, China (TSC). Fengyun 1C debris stems from the Chinese weather satellite Fengyun-1C, which was intentionally destroyed by a Chinese anti-satellite missile in 2007. This event dramatically increased the amount of space debris, with thousands of trackable fragments posing hazards to satellites and human spaceflight. The Fengyun 1C debris cloud has become a focal point in discussions about space sustainability and the need for international regulations to prevent the creation of new debris.

Loading next visibility...
Identifier
38813, 1999-025EVD
Orbit
SSO
Country
Flag of CNCN / PRC
Related business
Manufacturer
Unknown
Mission
Spacecraft
Bus & Motor
Unknown
Mass
Unknown
Launch date (UTC)
1999-05-10 (27 years ago)
Launch vehicle
Unknown
Launch site
Taiyaun Space Center, China (TSC)
Object type
Payload
Rocket body
Debris
Shape & HBR
Unknown shape, 0.1 m
Radar Cross Section
Small (<0.1 m²)

Expand to show TLE details & history
Last TLE update: 4 days ago

TLE from 4 days ago
0 FENGYUN 1C DEB
1 38813U 99025EVD 26251.29812426  .00000577  00000-0  29051-3 0  9997
2 38813  99.3464 268.7148 0007065  79.6208 280.5763 14.20677869520778
Epoch: 2026-09-08T07:09Z
TLE epoch observation values (Epoch: 2026-09-08T07:09:17.936Z)
Latitude
0.00002°
Longitude
174.02352°
Altitude
825.025 km
Speed
7.441 km/s
True Right ascension
17h 54m 51s
True Declination
0° 00' 00"
Sunlit
Object was in daylight at epoch
Visualization orbit readout
Latitude
Unknown
Longitude
Unknown
Altitude
Unknown
Speed
Unknown
Apparent Right ascension
Unknown
Apparent Declination
Unknown
Sunlit
N/A
Visualization observer readout
Local Sidereal Time
13:00:17
Azimuth
Unknown
Elevation
Unknown
Doppler factor
Unknown
Orbital elements
Apogee altitude
825.336 km
Perigee altitude
815.165 km
Semi-major axis
7,198.387 km
Eccentricity
0.00071
Inclination
99.3464°
RAAN
268.7148°
Arg. of periapsis
79.6208°
True anomaly
280.4967°
Mean anomaly
280.5763°
Eccentric anomaly
280.5365°
Mean motion
3.55378 °/min
Orbital period
101.3 mins
BSTAR
0.00029051
Loading maneuver chart data...
Computing Atmospheric mass density...
Loading historical data...
Loading historical data...
Loading historical data...
Loading historical data...
Loading historical data...
Loading historical data...
Loading historical data...

Documentation

Showing up to 5 results
|